Regional Weather Roundup
Issued by NWS

Home | Current Version | Previous Version | Text Only | Print | Product List | Glossary Off
Versions: 1 2 3 4 5 6 7 8 9 10 11 12 13 14 15 16 17 18 19 20 21 22 23 24 25 26 27 28 29 30 31 32 33 34 35 36 37 38 39 40 41 42 43 44 45 46 47 48 49 50

000
ASUS43 KTOP 300708
RWRKS

WEATHER ROUNDUP FOR KANSAS
NATIONAL WEATHER SERVICE GOODLAND KS
200 AM CDT THU MAR 30 2017

NOTE:  "FAIR" INDICATES FEW OR NO CLOUDS BELOW 12,000 FEET WITH NO
SIGNIFICANT WEATHER AND/OR OBSTRUCTIONS TO VISIBILITY.

KSZ001>006-013>018-027>032-041>047-300800-
NORTHWEST KANSAS

CITY           SKY/WX    TMP DP  RH WIND       PRES   REMARKS
GOODLAND       CLEAR     34  33  96 NW13      29.85F WCI  25
HAYS             N/A     40  37  89 N23G31    29.76S WCI  30
HILL CITY      CLOUDY    41  38  89 N23G29    29.82S
RUSSELL        CLOUDY    39  37  92 NW25G32   29.72F WCI  28
$$

KSZ061>065-074>080-084>089-300800-
SOUTHWEST KANSAS

CITY           SKY/WX    TMP DP  RH WIND       PRES   REMARKS
DODGE CITY     CLOUDY    41  39  93 NW14G25   29.80S
ELKHART          N/A     38  30  73 NW9         N/A
GARDEN CITY    MOCLDY    40  37  89 NW15      29.84R WCI  32
GREAT BEND     CLOUDY    40  37  89 NW20G26   29.73F WCI  30
LIBERAL        CLEAR     41  36  81 NW15      29.87S
PRATT          CLOUDY    37  35  90 NW21G28   29.71S WCI  27
$$

KSZ066>073-081>083-090>101-300800-
SOUTHEAST KANSAS

CITY           SKY/WX    TMP DP  RH WIND       PRES   REMARKS
CHANUTE        CLOUDY    48  44  86 S15       29.60F
COFFEYVILLE    CLOUDY    49  43  80 SW14G25   29.65S
MEDICINE LODGE   N/A     41  37  86 NW16G28   29.71F
NEWTON         CLOUDY    43  41  93 NW23G29   29.61R
PARSONS        LGT RAIN  48  44  86 SW13G22   29.63F
WICHITA INTL   DRIZZLE   44  44 100 NW17G26   29.64S
WICHITA JABRA  LGT RAIN  43  42  97 NW22G28   29.62S FOG
WICHITA MCCONL LGT RAIN  43  41  92 NW15G28   29.63S FOG
WINFIELD       CLOUDY    45  42  89 W17G24    29.66S
$$

KSZ007>012-019>026-033>040-048>060-102>105-300800-
NORTHEAST KANSAS

CITY           SKY/WX    TMP DP  RH WIND       PRES   REMARKS
CONCORDIA      LGT RAIN  41  40  96 N21G31    29.66S
EMPORIA        CLOUDY    49  49 100 S5        29.54F FOG
LAWRENCE       CLOUDY    54  54 100 E8        29.58F FOG
MANHATTAN      CLOUDY    49  47  93 N8        29.56S
MARYSVILLE     LGT RAIN  45  45 100 N15G21    29.60S
OLATHE IND     MOCLDY    53  50  89 SE10      29.58F
OLATHE EXE     CLOUDY    53  53 100 SE6       29.58F FOG
SALINA         LGT RAIN  43  41  93 NW25G33   29.65S
TOPEKA BILLARD CLOUDY    53  49  86 SE9       29.56S
TOPEKA FORBES  MOCLDY    51  47  86 S9        29.56F
$$




USA.gov is the U.S. government's official web portal to all federal, state and local government web resources and services.